Location: Spring Creek
(38.2870°N, 100.2160°W)
Time: 03:48:55
(UTC+00:00)

Cosmos 2251 Rocket - Pass Details

Date: 08 May 2021
Orbit: 765 x 791 km, 74.0° (Epoch: 22 June)

Event Time Altitude Azimuth Distance (km) Brightness Sun altitude
Rises 09:07:01 0° 345° (NNW) 3,242 7.2 -24.4°
Reaches altitude 10° 09:09:27 10° 349° (NNW) 2,310 6.4 -24.1°
Maximum altitude 09:14:38 61° 70° (ENE) 865 3.9 -23.4°
Enters shadow 09:19:20 12° 149° (SSE) 2,127 5.6 -22.8°
